Cloud_Cover
7 96 97 88 37 5 16 58 73 93 93 72 5 5 5 33 10 5 17 12 10 5 15 97 100 84 15 17 5 7 86 85 38 7 72 59 27 8 28 76 83 100 88 40 6
77 71 96 100 98 100 100 100 100 100 79 54 8 2 17 4 5 2 2 4 3 3 4 12 37 85 77 64 48 35 34 28 47 59 10 2 3 5 14 28 89 100 87 98 14
100 100 100 100 100 100 80 5 5 11 8 5 5 5 5 10 5 2 0 0 0 2 7 2 1 1 0 4 16 38 62 31 46 97 99 91 100 84 11 13 50 29 71 100 99
99 30 8 6 5 5 3 22 0 0 0 0 0 0 0 0 0 0 0 0 0 0 0 0 0 0 0 0 0 0 0 0 0 0 0 0 0 0 26 71 98 100 63 93 97
54 71 4 0 0 0 0 0 0 0 0 0 0 0 0 0 0 0 0 0 0 0 0 0 0 0 0 0 0 0 0 0 0 0 0 0 0 0 0 0 0 6 94 100 90
0 0 0 0 0 0 0 0 0 0 0 0 0 0 0 0 0 0 0 0 0 0 0 0 0 0 0 0 0 0 0 0 0 0 0 0 0 0 0 0 0 0 0 16 75
0 0 0 0 0 0 0 0 0 0 0 0 0 0 0 0 0 0 0 0 0 0 0 0 0 0 0 0 0 0 0 0 0 0 0 0 0 0 0 0 0 0 0 0 0
0 0 0 0 0 0 0 0 0 0 0 0 0 0 0 0 0 0 0 0 0 0 0 0 0 0 0 0 0 0 0 0 0 0 0 0 0 0 0 0 0 0 0 0 0
0 0 0 0 0 0 0 0 0 0 0 0 0 0 0 0 0 0 0 0 0 0 0 0 0 0 0 0 0 0 0 0 0 0 0 0 0 0 0 0 0 0 0 0 0
0 0 0 0 0 0 0 0 0 0 0 0 0 0 0 0 0 0 0 0 0 0 0 0 0 0 0 0 0 0 0 0 0 0 0 0 0 0 0 0 0 1 54 94 81
0 0 0 0 0 0 0 0 0 0 0 0 0 0 0 0 0 0 0 0 0 0 0 0 0 0 0 0 0 0 0 0 0 0 0 0 0 0 0 0 2 16 6 5 5
0 0 0 0 0 0 0 0 0 0 0 0 0 0 0 0 0 0 0 0 0 0 0 0 0 0 0 0 0 0 0 0 0 0 0 0 0 0 0 0 0 0 0 0 4
0 0 0 0 0 0 0 0 0 0 0 0 0 0 0 0 0 0 0 0 0 0 0 0 0 0 0 0 0 0 0 0 0 0 0 0 0 0 0 0 0 0 0 0 1
0 0 0 0 0 0 0 0 0 0 0 0 0 0 0 0 0 0 0 0 0 0 0 0 0 0 0 0 0 0 0 0 0 0 0 0 2 0 1 0 0 0 0 4 1
0 0 0 0 0 0 0 0 0 0 0 0 0 0 0 0 0 0 0 0 0 0 0 0 0 0 0 0 0 0 0 0 0 0 0 0 1 0 0 0 0 0 0 0 0
0 0 0 0 0 0 0 0 0 0 0 0 0 0 0 0 0 0 0 0 0 0 0 0 0 0 0 0 0 0 3 0 0 0 0 0 0 4 2 0 1 0 0 0 1
0 0 0 0 0 0 0 0 5 5 0 1 0 0 0 0 0 0 0 0 0 0 0 0 0 0 0 0 0 0 5 3 0 0 0 0 2 0 0 0 0 0 0 5 56
0 0 0 0 0 0 0 0 0 5 5 5 4 0 0 0 0 0 0 0 0 0 0 0 0 0 0 0 0 5 5 5 3 0 5 0 1 0 0 0 0 0 5 13 100
0 0 0 0 0 0 4 4 5 5 5 5 5 5 4 0 0 0 0 0 5 0 0 0 0 0 0 0 0 0 3 5 5 2 0 2 0 0 0 0 0 0 22 47 96
0 0 0 0 0 0 0 0 4 5 5 5 5 5 5 5 4 1 0 3 1 5 1 5 5 0 0 0 0 0 0 0 0 0 0 1 0 0 0 0 0 0 3 0 5
0 0 0 0 0 0 1 5 3 5 5 5 5 5 5 5 5 5 4 5 41 1 5 5 3 2 0 0 0 0 1 0 0 0 0 3 0 0 0 0 0 0 0 0 2
0 0 0 0 0 0 0 5 5 5 5 5 5 22 5 9 11 5 5 37 29 35 3 5 8 5 2 0 0 0 5 5 0 0 1 4 4 0 0 0 0 0 0 0 0
0 0 0 0 0 0 0 2 1 5 5 5 5 5 5 6 5 5 5 27 50 94 97 5 11 11 5 4 0 3 2 5 5 4 5 5 5 2 0 0 0 0 0 0 0
17 2 0 0 0 0 0 0 3 5 5 5 5 5 5 6 43 6 6 5 5 19 100 100 15 35 14 27 7 3 5 5 5 5 5 25 31 5 5 4 5 0 0 0 4
92 5 5 0 0 0 0 0 0 0 3 5 5 5 5 5 22 55 58 5 5 36 100 100 100 90 81 100 100 36 5 5 5 40 85 49 82 32 5 5 5 2 5 0 4
41 6 5 0 4 0 0 0 0 0 0 0 0 5 5 5 5 5 30 99 39 63 100 100 100 100 76 100 100 100 8 3 5 19 100 7 16 11 5 5 5 5 5 5 5
5 5 5 6 5 2 0 0 0 0 0 2 4 4 5 5 5 5 34 98 100 98 91 95 100 100 62 96 100 100 16 5 5 5 82 18 6 5 16 5 5 5 5 5 5